Нейстрелиц

Germany     53˚21′00″N   13˚04′58″E
temp.,
°C
wind,
m/s
gust,
m/s
humid.,
%
clouds,
%
prec.,
mm/h
press.,
hPa
HPBL,
m
2 december, wed
wed201:00−1˚ene239581 0.0 102385
04:00e258579 0.0 1022170
07:00−1˚ese228776 0.0 102287
10:00ese258219 0.0 1021239
13:00+2˚se35749 0.0 1019419
16:00ese26903 0.0 1017156
19:00−1˚se399110 0.0 1015318
22:00−1˚sse310860 0.0 1014410
3 december, thu
thu301:00−2˚sse410810 0.0 1012447
04:00−2˚sse411780 0.0 1009504
07:00−2˚sse397510 0.0 1008352
10:00−1˚s487245 0.0 1006448
13:00+1˚sse486723 0.0 1004550
16:00−1˚sse410777 0.0 1003382
19:00−2˚sse39804 0.0 1001346
22:00−1˚sse411782 0.0 1000364
4 december, fri
fri401:00−2˚sse410771 0.0 998360
04:00−2˚se4108025 0.0 997353
07:00−1˚se5118063 0.0 996336
10:00+1˚se4984100 0.0 995321
13:00+3˚se4984100 0.0 994431
16:00+3˚ese41091100 0.0 994346
19:00+1˚ese3109283 0.0 994273
22:00+1˚ese3119268 0.0 995284
5 december, sat
sat501:00+1˚se3109384 0.0 996297
04:00ese3794100 0.0 996172
07:00+1˚ese3994100 0.0 996268
10:00+4˚ese41386100 0.0 996550
13:00+7˚se41278100 0.0 997818
16:00+6˚se41283100 0.0 997435
19:00+4˚se3119189 0.0 997338
22:00+6˚se515863 0.0 998515
6 december, sun
sun601:00+8˚se6147851 0.0 998643
04:00+8˚se51279100 0.0 998612
07:00+7˚ese51283100 0.0 999554
10:00+9˚se61376100 0.0 1000711
13:00+10˚ese51172100 0.0 999987
16:00+9˚se71481100 0.5 999973
19:00+9˚se71489100 3.3 999945
22:00+9˚ese71489100 6.1 999989